星链-11666 (STARLINK-11666)

导读 | 豆包AI

STARLINK-11666是美国于2025年4月28日发射的Starlink星链卫星,隶属于太空探索技术公司SpaceX打造的星链星座网络。星链计划旨在通过大规模低轨卫星组网,为全球提供高速互联网接入服务,该卫星的发射进一步扩充了星链星座的卫星规模,助力完善全球卫星互联网覆盖能力。

基本信息
目录编号:
63667
目录名称:
STARLINK-11666
国际标识:
2025-085D
轨道中心:
EARTH
卫星名称:
星链-11666
卫星全名:
星链-11666 (STARLINK-11666)
卫星状态:
在轨 (已飞行369 天)
发射日期:
2025-04-28 UTC
国别 :
美国 (US)
星等 :
--
轨道信息
数据来源 国际轨道数据
星历时间: 2026-05-02T03:42:19+0800
15小时前
查看轨道信息
半长轴: 6734.635km
偏心率: 0.0001277
轨道倾角: 43.000°
近地点辐角 192.764°
升交点赤经 318.550°
平近点角 167.319°
近地点: 355.637km
远地点: 357.359km
周期: 91.671分钟
每日圈数: 15.708391
详细信息
固有亮度:
5
最大亮度:
2.5
卫星平台:
Starlink V1.0
覆盖范围:
全球
运营商:
太空探索技术公司
运营商所在国:
美国
制造商(研发单位):
太空探索技术公司
制造商所在国:
美国
使用方式:
暂无
卫星简介
Starlink 计划是 SpaceX 推出的全球卫星互联网项目,通过发射低轨道卫星,为全球尤其是偏远地区提供高速、低延迟的互联网服务。自 2019 年起,Starlink 已部署数千颗卫星,旨在缩小全球数字鸿沟,推动互联网普及。该项目还为军事、航空等行业提供通信支持,带来广泛经济效益。
2D轨道图
3D轨道图
轨道高度分析图
轨道倾角分析图
轨道综合分析图
查看轨道综合分析图